When you browse on this site, cookies collect data to enhance your experience and personalize the content and advertising you see.
Visit our Privacy Policy to learn more. By continuing to use the site, you agree to this use of cookies and data.
  • In Österreich
  • Länderverzeichnis
  • Für 7 Tage
  • Wassertemperatur
  • Satellitenkarten
  • Wetterkarte
  • News
  • Widgets
  • user-avatar
    Anmelden

    Stündliche Wetter Artaschat

    Heute, 20 Februar, Mittwoch

    Zeit Temperatur Niederschläge Wind Luftdruck Luftfeuchtigkeit
    00:00 -9°C° 0 mm 2 m/S 599 mmHg 56%
    01:00 -9°C° 0 mm 2 m/S 599 mmHg 54%
    02:00 -9°C° 0 mm 2 m/S 599 mmHg 53%
    03:00 -9°C° 0 mm 2 m/S 599 mmHg 51%
    04:00 -8°C° 0 mm 1 m/S 599 mmHg 50%
    05:00 -9°C° 0 mm 1 m/S 599 mmHg 48%
    06:00 -9°C° 0 mm 1 m/S 599 mmHg 47%
    07:00 -8°C° 0 mm 1 m/S 599 mmHg 47%
    08:00 -6°C° 0 mm 1 m/S 600 mmHg 46%
    09:00 -4°C° 0 mm 1 m/S 600 mmHg 46%
    10:00 -3°C° 0 mm 1 m/S 600 mmHg 45%
    11:00 -4°C° 0 mm 2 m/S 600 mmHg 45%
    12:00 -3°C° 0 mm 2 m/S 601 mmHg 45%
    13:00 -2°C° 0 mm 2 m/S 600 mmHg 47%
    14:00 -2°C° 0 mm 2 m/S 600 mmHg 48%
    15:00 -2°C° 0 mm 2 m/S 600 mmHg 50%
    16:00 -3°C° 0 mm 2 m/S 600 mmHg 52%
    17:00 -4°C° 0 mm 2 m/S 599 mmHg 55%
    18:00 -4°C° 0 mm 1 m/S 599 mmHg 57%
    19:00 -4°C° 0 mm 1 m/S 599 mmHg 56%
    20:00 -7°C° 0 mm 2 m/S 599 mmHg 55%
    21:00 -7°C° 0 mm 2 m/S 599 mmHg 54%
    22:00 -7°C° 0 mm 2 m/S 599 mmHg 52%
    23:00 -8°C° 0 mm 2 m/S 599 mmHg 49%

    Morgen, 21 Februar, Donnerstag

    Zeit Temperatur Niederschläge Wind Luftdruck Luftfeuchtigkeit
    00:00 -8°C° 0 mm 2 m/S 599 mmHg 47%
    01:00 -8°C° 0 mm 2 m/S 599 mmHg 46%
    02:00 -8°C° 0 mm 2 m/S 598 mmHg 44%
    03:00 -9°C° 0 mm 2 m/S 598 mmHg 43%
    04:00 -9°C° 0 mm 2 m/S 598 mmHg 43%
    05:00 -9°C° 0 mm 2 m/S 598 mmHg 44%
    06:00 -9°C° 0 mm 2 m/S 598 mmHg 44%
    07:00 -8°C° 0 mm 2 m/S 598 mmHg 45%
    08:00 -6°C° 0 mm 1 m/S 599 mmHg 46%
    09:00 -4°C° 0 mm 1 m/S 599 mmHg 46%
    10:00 -3°C° 0 mm 1 m/S 599 mmHg 45%
    11:00 -2°C° 0 mm 1 m/S 599 mmHg 44%
    12:00 -2°C° 0 mm 0 m/S 599 mmHg 43%
    13:00 -1°C° 0 mm 1 m/S 598 mmHg 45%
    14:00 0°C° 0 mm 1 m/S 598 mmHg 46%
    15:00 0°C° 0 mm 1 m/S 598 mmHg 48%
    16:00 -1°C° 0 mm 1 m/S 598 mmHg 52%
    17:00 -2°C° 0 mm 1 m/S 597 mmHg 55%
    18:00 -4°C° 0 mm 1 m/S 597 mmHg 59%
    19:00 -4°C° 0 mm 1 m/S 597 mmHg 60%
    20:00 -7°C° 0 mm 2 m/S 598 mmHg 61%
    21:00 -7°C° 0 mm 2 m/S 598 mmHg 62%
    22:00 -8°C° 0 mm 2 m/S 598 mmHg 62%
    23:00 -8°C° 0 mm 2 m/S 598 mmHg 62%

    übermorgen, 22 Februar, Freitag

    Zeit Temperatur Niederschläge Wind Luftdruck Luftfeuchtigkeit
    00:00 -8°C° 0 mm 2 m/S 598 mmHg 62%
    01:00 -8°C° 0 mm 2 m/S 598 mmHg 62%
    02:00 -9°C° 0 mm 2 m/S 598 mmHg 62%
    03:00 -9°C° 0 mm 2 m/S 598 mmHg 63%
    04:00 -9°C° 0 mm 2 m/S 598 mmHg 63%
    05:00 -9°C° 0 mm 2 m/S 597 mmHg 64%
    06:00 -9°C° 0 mm 2 m/S 597 mmHg 65%
    07:00 -7°C° 0 mm 1 m/S 598 mmHg 64%
    08:00 -6°C° 0 mm 1 m/S 598 mmHg 63%
    09:00 -4°C° 0 mm 1 m/S 598 mmHg 62%
    10:00 -4°C° 0 mm 1 m/S 598 mmHg 61%
    11:00 -3°C° 0 mm 1 m/S 598 mmHg 59%
    12:00 -2°C° 0 mm 1 m/S 598 mmHg 58%
    13:00 -1°C° 0 mm 1 m/S 598 mmHg 58%
    14:00 -1°C° 0 mm 1 m/S 598 mmHg 58%
    15:00 0°C° 0 mm 1 m/S 597 mmHg 58%
    16:00 -1°C° 0 mm 1 m/S 597 mmHg 61%
    17:00 -2°C° 0 mm 1 m/S 597 mmHg 64%
    18:00 -3°C° 0 mm 1 m/S 597 mmHg 67%
    19:00 -3°C° 0 mm 1 m/S 597 mmHg 68%
    20:00 -6°C° 0 mm 2 m/S 598 mmHg 69%
    21:00 -7°C° 0 mm 2 m/S 598 mmHg 70%
    22:00 -7°C° 0 mm 2 m/S 598 mmHg 70%
    23:00 -7°C° 0 mm 2 m/S 598 mmHg 69%

    23 Februar, Samstag

    Zeit Temperatur Niederschläge Wind Luftdruck Luftfeuchtigkeit
    00:00 -7°C° 0 mm 2 m/S 598 mmHg 69%
    01:00 -8°C° 0 mm 2 m/S 598 mmHg 69%
    02:00 -8°C° 0 mm 2 m/S 598 mmHg 69%
    03:00 -8°C° 0 mm 2 m/S 597 mmHg 69%
    04:00 -8°C° 0 mm 2 m/S 597 mmHg 69%
    05:00 -8°C° 0 mm 2 m/S 597 mmHg 69%
    06:00 -8°C° 0 mm 2 m/S 597 mmHg 69%
    07:00 -7°C° 0 mm 2 m/S 598 mmHg 67%
    08:00 -6°C° 0 mm 2 m/S 598 mmHg 65%
    09:00 -5°C° 0 mm 2 m/S 598 mmHg 63%
    10:00 -4°C° 0 mm 2 m/S 598 mmHg 61%
    11:00 -3°C° 0 mm 2 m/S 598 mmHg 59%
    12:00 -2°C° 0 mm 2 m/S 598 mmHg 57%
    13:00 -2°C° 0.1 mm 2 m/S 598 mmHg 59%
    14:00 -2°C° 0.1 mm 2 m/S 598 mmHg 60%
    15:00 -1°C° 0.1 mm 2 m/S 598 mmHg 62%
    16:00 -2°C° 0.1 mm 2 m/S 598 mmHg 65%
    17:00 -2°C° 0.1 mm 2 m/S 598 mmHg 67%
    18:00 -1°C° 0.1 mm 1 m/S 598 mmHg 70%
    19:00 -1°C° 0.1 mm 1 m/S 598 mmHg 71%
    20:00 -2°C° 0.1 mm 1 m/S 599 mmHg 71%
    21:00 -4°C° 0.1 mm 2 m/S 599 mmHg 72%
    22:00 -5°C° 0 mm 2 m/S 599 mmHg 71%
    23:00 -5°C° 0 mm 2 m/S 599 mmHg 71%

    24 Februar, Sonntag

    Zeit Temperatur Niederschläge Wind Luftdruck Luftfeuchtigkeit
    00:00 -5°C° 0 mm 2 m/S 599 mmHg 71%
    01:00 -5°C° 0 mm 2 m/S 599 mmHg 71%
    02:00 -6°C° 0 mm 2 m/S 599 mmHg 71%
    03:00 -4°C° 0 mm 1 m/S 598 mmHg 71%
    04:00 -4°C° 0 mm 1 m/S 599 mmHg 70%
    05:00 -4°C° 0 mm 1 m/S 599 mmHg 70%
    06:00 -4°C° 0 mm 1 m/S 599 mmHg 69%
    07:00 -3°C° 0 mm 1 m/S 599 mmHg 66%
    08:00 -2°C° 0 mm 1 m/S 600 mmHg 64%
    09:00 -1°C° 0 mm 1 m/S 600 mmHg 61%
    10:00 0°C° 0 mm 1 m/S 600 mmHg 60%
    11:00 +1°C° 0 mm 1 m/S 600 mmHg 59%
    12:00 +2°C° 0 mm 1 m/S 600 mmHg 57%
    13:00 +2°C° 0 mm 1 m/S 600 mmHg 57%
    14:00 +2°C° 0 mm 1 m/S 600 mmHg 56%
    15:00 +3°C° 0 mm 1 m/S 600 mmHg 55%
    16:00 +2°C° 0 mm 1 m/S 600 mmHg 58%
    17:00 +1°C° 0 mm 1 m/S 600 mmHg 61%
    18:00 0°C° 0 mm 1 m/S 600 mmHg 64%
    19:00 -1°C° 0 mm 1 m/S 600 mmHg 64%
    20:00 -1°C° 0 mm 1 m/S 601 mmHg 64%
    21:00 -4°C° 0 mm 2 m/S 601 mmHg 64%
    22:00 -4°C° 0 mm 2 m/S 601 mmHg 64%
    23:00 -4°C° 0 mm 2 m/S 601 mmHg 64%

    25 Februar, Montag

    Zeit Temperatur Niederschläge Wind Luftdruck Luftfeuchtigkeit
    00:00 -5°C° 0 mm 2 m/S 601 mmHg 63%
    01:00 -5°C° 0 mm 2 m/S 601 mmHg 63%
    02:00 -5°C° 0 mm 2 m/S 601 mmHg 63%
    03:00 -5°C° 0 mm 2 m/S 601 mmHg 62%
    04:00 -5°C° 0 mm 2 m/S 601 mmHg 62%
    05:00 -5°C° 0 mm 2 m/S 601 mmHg 61%
    06:00 -3°C° 0 mm 1 m/S 601 mmHg 61%
    07:00 -2°C° 0 mm 1 m/S 601 mmHg 59%
    08:00 -1°C° 0 mm 1 m/S 602 mmHg 58%
    09:00 0°C° 0 mm 1 m/S 602 mmHg 56%
    10:00 -1°C° 0 mm 2 m/S 602 mmHg 55%
    11:00 +1°C° 0 mm 2 m/S 602 mmHg 54%
    12:00 +2°C° 0 mm 2 m/S 602 mmHg 54%
    13:00 +2°C° 0 mm 2 m/S 601 mmHg 54%
    14:00 +2°C° 0 mm 2 m/S 601 mmHg 54%
    15:00 +2°C° 0 mm 2 m/S 601 mmHg 55%
    16:00 +2°C° 0 mm 2 m/S 600 mmHg 56%
    17:00 +1°C° 0 mm 2 m/S 600 mmHg 58%
    18:00 -1°C° 0 mm 2 m/S 600 mmHg 60%
    19:00 -1°C° 0 mm 2 m/S 600 mmHg 61%
    20:00 -2°C° 0 mm 2 m/S 599 mmHg 62%
    21:00 -2°C° 0 mm 2 m/S 599 mmHg 62%
    22:00 -2°C° 0 mm 2 m/S 599 mmHg 62%
    23:00 -3°C° 0 mm 2 m/S 598 mmHg 61%
    Mehr zeigen